EW7069 Weather Reports


time (UTC)temp
F
wind
direction
speed
knots
gust
knots
rain 1hr
in
rain 24hr
in
rain mn
in
humidity
%
barometer
mb
20260509000003 61 225 3.5 7.8 0.00 0.00 0.00 29 1004.9
20260508235004 62 225 2.6 3.5 0.00 0.00 0.00 26 1006.2
20260508234004 63 225 2.6 5.2 0.00 0.00 0.00 24 1006.0
20260508232004 63 225 5.2 7.8 0.00 0.00 0.00 21 1006.7
20260508230003 64 225 5.2 7.8 0.00 0.00 0.00 23 1006.9
20260508225004 65 225 3.5 3.5 0.00 0.00 0.00 23 1006.6
20260508224003 67 225 5.2 7.0 0.00 0.00 0.00 21 1006.4
20260508222004 69 225 4.3 6.1 0.00 0.00 0.00 21 1003.9
20260508221004 68 225 6.1 9.6 0.00 0.00 0.00 19 1002.9
20260508220003 71 225 4.3 7.0 0.00 0.00 0.00 19 1002.4
20260508215004 69 225 3.5 5.2 0.00 0.00 0.00 20 1001.0
20260508214004 70 225 4.3 7.8 0.00 0.00 0.00 18 1000.5
20260508212004 67 225 4.3 6.1 0.00 0.00 0.00 23 998.7
20260508211004 68 225 3.5 6.1 0.00 0.00 0.00 19 998.4
20260508210004 71 225 4.3 7.8 0.00 0.00 0.00 20 998.0
20260508205004 67 225 6.1 11.3 0.00 0.00 0.00 21 997.1
20260508204003 64 225 5.2 9.6 0.00 0.00 0.00 21 996.8
20260508203004 65 280 6.1 9.6 0.00 0.00 0.00 19 996.9
20260508202003 68 229 8.7 11.3 0.00 0.00 0.00 17 1005.7
20260508201004 70 225 6.1 7.0 0.00 0.00 0.00 19 1005.3
20260508200004 65 225 5.2 8.7 0.00 0.00 0.00 23 1004.9
20260508194004 66 293 6.1 9.6 0.00 0.00 0.00 23 1004.4
20260508193004 65 314 3.5 4.3 0.00 0.00 0.00 24 1004.3
20260508191003 66 6 5.2 12.2 0.00 0.00 0.00 22 1003.9
20260508190004 66 335 5.2 7.8 0.00 0.00 0.00 24 1003.5
20260508185004 65 299 7.0 10.4 0.00 0.00 0.00 23 1003.2
20260508183004 64 22 5.2 9.6 0.00 0.00 0.00 21 1002.3
20260508182004 66 31 5.2 9.6 0.00 0.00 0.00 23 1001.9
20260508181003 65 204 5.2 9.6 0.00 0.00 0.00 23 1001.7
20260508180004 64 291 7.0 13.0 0.00 0.00 0.00 20 1001.4
20260508175004 64 267 7.0 9.6 0.00 0.00 0.00 21 1001.1
20260508174003 64 225 7.0 13.0 0.00 0.00 0.00 19 1001.1
20260508173004 65 225 4.3 8.7 0.00 0.00 0.00 23 1001.1
20260508172004 64 225 5.2 9.6 0.00 0.00 0.00 23 1001.2
20260508171004 63 225 6.1 9.6 0.00 0.00 0.00 21 1001.1
20260508170004 62 225 4.3 7.8 0.00 0.00 0.00 24 1000.5
20260508165004 62 225 4.3 9.6 0.00 0.00 0.00 24 1000.3
20260508164003 62 225 3.5 5.2 0.00 0.00 0.00 29 999.9
20260508163004 63 225 3.5 7.0 0.00 0.00 0.00 28 999.6
20260508162004 62 225 1.7 6.1 0.00 0.00 0.00 30 999.5
20260508161004 61 225 3.5 7.0 0.00 0.00 0.00 33 999.3
20260508160004 60 225 4.3 7.0 0.00 0.00 0.00 33 999.2
20260508155003 60 223 3.5 6.1 0.00 0.00 0.00 32 999.2
20260508153004 61 214 2.6 3.5 0.00 0.00 0.00 33 998.9
20260508152005 60 110 0.9 2.6 0.00 0.00 0.00 38 998.9
20260508151004 59 270 2.6 3.5 0.00 0.00 0.00 35 998.8
20260508150004 59 270 2.6 3.5 0.00 0.00 0.00 38 998.8
20260508145004 59 247 2.6 3.5 0.00 0.00 0.00 37 998.7
20260508144004 58 5 1.7 1.7 0.00 0.00 0.00 37 998.6
20260508143004 58 299 1.7 2.6 0.00 0.00 0.00 44 998.7
20260508142004 57 270 0.9 1.7 0.00 0.00 0.00 46 998.6
20260508141004 56 270 0.9 1.7 0.00 0.00 0.00 49 998.7
20260508140005 54 270 1.7 2.6 0.00 0.00 0.00 51 998.7
20260508135004 53 270 2.6 3.5 0.00 0.00 0.00 57 998.7
20260508134004 53 270 2.6 3.5 0.00 0.00 0.00 59 998.8
20260508133004 52 270 2.6 3.5 0.00 0.00 0.00 62 998.8
20260508132004 51 270 2.6 3.5 0.00 0.00 0.00 65 998.9
20260508131005 51 270 2.6 4.3 0.00 0.00 0.00 71 999.0
20260508130004 50 270 2.6 5.2 0.00 0.00 0.00 79 999.1
20260508125004 49 270 3.5 5.2 0.00 0.00 0.00 85 999.2
20260508124004 47 270 3.5 5.2 0.00 0.00 0.00 88 999.3
20260508123005 44 270 2.6 3.5 0.00 0.00 0.00 89 999.5
20260508121003 40 270 0.9 3.5 0.00 0.00 0.00 89 999.5
20260508120003 39 270 0.0 0.9 0.00 0.00 0.00 89 999.7
20260508115003 38 0 0.0 0.0 0.00 0.00 0.00 88 999.7
20260508112004 35 0 0.0 0.0 0.00 0.00 0.00 84 999.4
20260508110004 34 0 0.0 0.0 0.00 0.00 0.00 83 998.4
20260508105003 34 0 0.0 0.0 0.00 0.00 0.00 83 998.3
20260508104004 34 0 0.0 0.0 0.00 0.00 0.00 83 997.3
20260508103003 34 0 0.0 0.0 0.00 0.00 0.00 83 996.7
20260508102003 35 0 0.0 0.0 0.00 0.00 0.00 83 996.6
20260508101004 35 0 0.0 0.0 0.00 0.00 0.00 83 996.6
20260508100004 35 0 0.0 0.0 0.00 0.00 0.00 82 996.8
20260508095003 35 0 0.0 0.0 0.00 0.00 0.00 82 997.1
20260508094003 35 0 0.0 0.0 0.00 0.00 0.00 82 996.7
20260508093003 35 0 0.0 0.0 0.00 0.00 0.00 82 996.8
20260508091003 36 0 0.0 0.0 0.00 0.00 0.00 81 997.1
20260508090004 36 0 0.0 0.0 0.00 0.00 0.00 81 996.9
20260508085003 36 0 0.0 0.0 0.00 0.00 0.00 81 997.3
20260508084003 36 0 0.0 0.0 0.00 0.00 0.00 81 997.4
20260508083003 37 0 0.0 0.0 0.00 0.00 0.00 81 997.1
20260508082003 37 0 0.0 0.0 0.00 0.00 0.00 81 997.2
20260508081004 38 0 0.0 0.0 0.00 0.00 0.00 85 997.4
20260508080003 38 0 0.0 0.0 0.00 0.00 0.00 85 997.7
20260508075003 39 0 0.0 0.0 0.00 0.00 0.00 85 997.5
20260508074003 39 0 0.0 0.0 0.00 0.00 0.00 84 997.6
20260508073002 38 0 0.0 0.0 0.00 0.00 0.00 84 997.9
20260508071002 37 0 0.0 0.0 0.00 0.00 0.00 78 998.0
20260508070002 36 0 0.0 0.0 0.00 0.00 0.00 78 997.8
20260508065002 36 0 0.0 0.0 0.00 0.00 0.00 76 998.0
20260508064002 36 0 0.0 0.0 0.00 0.00 0.00 76 998.1
20260508062002 37 0 0.0 0.0 0.00 0.00 0.00 74 998.0
20260508060002 38 0 0.0 0.0 0.00 0.00 0.00 78 998.6
20260508055002 39 0 0.0 0.0 0.00 0.00 0.00 78 998.5
20260508054002 39 0 0.0 0.0 0.00 0.00 0.00 77 998.3
20260508053002 39 0 0.0 0.0 0.00 0.00 0.00 77 998.4
20260508052002 39 0 0.0 0.0 0.00 0.00 0.00 77 998.6
20260508051002 39 0 0.0 0.0 0.00 0.00 0.00 77 998.7
20260508045002 38 0 0.0 0.0 0.00 0.00 0.00 74 998.4
20260508044002 38 0 0.0 0.0 0.00 0.00 0.00 73 998.6
20260508043003 39 0 0.0 0.0 0.00 0.00 0.00 72 998.8
20260508042002 39 0 0.0 0.0 0.00 0.00 0.00 71 998.9
20260508041002 40 0 0.0 0.0 0.00 0.00 0.00 70 999.0
20260508040003 40 0 0.0 0.0 0.00 0.00 0.00 69 999.2
20260508034002 41 0 0.0 0.0 0.00 0.00 0.00 65 999.5
20260508032003 42 0 0.0 0.0 0.00 0.00 0.00 62 999.7
20260508031002 42 0 0.0 0.0 0.00 0.00 0.00 61 999.9
20260508024002 45 0 0.0 0.0 0.00 0.00 0.00 55 1000.1
20260508023002 45 0 0.0 0.0 0.00 0.00 0.00 54 1000.2
20260508022002 46 270 0.0 0.9 0.00 0.00 0.00 53 1000.1
20260508020002 47 270 0.9 1.7 0.00 0.00 0.00 52 1000.1
20260508014002 49 270 1.7 5.2 0.00 0.00 0.00 47 999.8
20260508013002 49 270 3.5 5.2 0.00 0.00 0.00 45 1000.2
20260508012003 50 266 4.3 7.0 0.00 0.00 0.00 43 1000.5
20260508011002 50 292 3.5 7.0 0.00 0.00 0.00 42 1000.7
20260508010003 50 275 3.5 7.0 0.00 0.00 0.00 40 1002.2
20260508005002 51 248 2.6 3.5 0.00 0.00 0.00 35 1002.7
20260508004002 51 266 3.5 7.0 0.00 0.00 0.00 34 1002.9
20260508003003 51 262 3.5 9.6 0.00 0.00 0.00 33 1003.1
20260508002002 51 249 4.3 7.8 0.00 0.00 0.00 31 1003.3
20260508001003 51 293 4.3 7.0 0.00 0.00 0.00 31 1003.7